Weather History for Hazen, ND

Change the Weather History Date:

Monday, November 19, 2012

  Actual Average (KN60) Record (KN60)
Temperature  
Mean Temperature 38 °F -  
Max Temperature 50 °F 32 °F 50 °F (2002)
Min Temperature 26 °F 15 °F 1 °F (2000)
Degree Days  
Heating Degree Days 27    
Moisture  
Dew Point 27 °F    
Average Humidity 71    
Maximum Humidity 93    
Minimum Humidity 37    
Precipitation  
Precipitation 0.00 in - - ()
Sea Level Pressure  
Sea Level Pressure 30.07 in    
Wind  
Wind Speed 7 mph (SSW)    
Max Wind Speed 14 mph    
Max Gust Speed -    
Visibility 10 miles    
Events      
Averages and records for this station are not official NWS values.
T = Trace of Precipitation, MM = Missing Value Source: NWS Daily Summary

Daily Weather History Graph

Daily Weather History Graph

Search for Another Location

Airport:

Trip Planner

Search our weather history database for the weather conditions in past years. The results will help you decide how hot, cold, wet, or windy it might be!

Date:

Astronomy

Nov. 19, 2012 Rise Set
Actual Time 7:57 AM CST 5:06 PM CST
Civil Twilight 7:23 AM CST 5:39 PM CST
Nautical Twilight 6:45 AM CST 6:17 PM CST
Astronomical Twilight 6:09 AM CST 6:53 PM CST
Moon 12:51 PM CST (11/19) 11:46 PM CST (11/19)
Length of Visible Light 10h 16m
Length of Day
9h 09m
Waxing Crescent, 41% of the Moon is Illuminated
Nov 19
Waxing Crescent
Nov 20
First Quarter
Nov 28
Full
Dec 6
Last Quarter
Dec 13
New

Hourly Weather History & Observations

Time (CST) Temp. Windchill Dew Point Humidity Pressure Visibility Wind Dir Wind Speed Gust Speed Precip Events Conditions
12:15 AM 35.6 °F 28.6 °F 32.0 °F 87% 29.94 in 10.0 mi WSW 9.2 mph - N/A   Mostly Cloudy
12:35 AM 37.4 °F 31.4 °F 32.0 °F 81% 29.95 in 10.0 mi WSW 8.1 mph - N/A   Mostly Cloudy
12:55 AM 37.4 °F 32.1 °F 32.0 °F 81% 29.96 in 10.0 mi WSW 6.9 mph - N/A   Overcast
1:15 AM 35.6 °F 30.7 °F 30.2 °F 81% 29.96 in 10.0 mi SW 5.8 mph - N/A   Mostly Cloudy
1:35 AM 33.8 °F 29.6 °F 28.4 °F 81% 29.96 in 10.0 mi WSW 4.6 mph - N/A   Partly Cloudy
1:55 AM 33.8 °F 29.6 °F 28.4 °F 81% 29.97 in 10.0 mi WSW 4.6 mph - N/A   Scattered Clouds
2:15 AM 33.8 °F 27.7 °F 28.4 °F 81% 29.97 in 10.0 mi WSW 6.9 mph - N/A   Mostly Cloudy
2:35 AM 32.0 °F 26.4 °F 28.4 °F 87% 29.98 in 10.0 mi WSW 5.8 mph - N/A   Partly Cloudy
2:55 AM 32.0 °F 24.8 °F 28.4 °F 87% 30.00 in 10.0 mi WSW 8.1 mph - N/A   Clear
3:15 AM 32.0 °F 25.6 °F 28.4 °F 87% 30.00 in 10.0 mi WSW 6.9 mph - N/A   Partly Cloudy
3:35 AM 32.0 °F 26.4 °F 28.4 °F 87% 30.00 in 10.0 mi WSW 5.8 mph - N/A   Partly Cloudy
3:55 AM 32.0 °F 24.2 °F 28.4 °F 87% 30.01 in 10.0 mi WSW 9.2 mph - N/A   Partly Cloudy
4:15 AM 30.2 °F 22.6 °F 26.6 °F 86% 30.02 in 10.0 mi WSW 8.1 mph - N/A   Clear
4:35 AM 30.2 °F 22.6 °F 26.6 °F 86% 30.01 in 10.0 mi SW 8.1 mph - N/A   Scattered Clouds
4:55 AM 28.4 °F 21.2 °F 26.6 °F 93% 30.02 in 10.0 mi SW 6.9 mph - N/A   Scattered Clouds
5:15 AM 32.0 °F 24.8 °F 26.6 °F 80% 30.02 in 10.0 mi SW 8.1 mph - N/A   Mostly Cloudy
5:35 AM 30.2 °F 23.4 °F 26.6 °F 86% 30.03 in 10.0 mi WSW 6.9 mph - N/A   Overcast
5:55 AM 30.2 °F 25.4 °F 26.6 °F 86% 30.03 in 10.0 mi WSW 4.6 mph - N/A   Overcast
6:15 AM 28.4 °F 21.2 °F 26.6 °F 93% 30.04 in 10.0 mi WSW 6.9 mph - N/A   Overcast
6:35 AM 28.4 °F 23.3 °F 26.6 °F 93% 30.04 in 10.0 mi SW 4.6 mph - N/A   Mostly Cloudy
6:55 AM 30.2 °F 23.4 °F 26.6 °F 86% 30.05 in 10.0 mi SW 6.9 mph - N/A   Partly Cloudy
7:35 AM 26.6 °F 22.6 °F 24.8 °F 93% 30.07 in 10.0 mi SW 3.5 mph - N/A   Clear
7:55 AM 28.4 °F - 24.8 °F 86% 30.07 in 10.0 mi Calm Calm - N/A   Clear
8:15 AM 26.6 °F 22.6 °F 24.8 °F 93% 30.08 in 10.0 mi SW 3.5 mph - N/A   Clear
8:35 AM 28.4 °F 22.2 °F 26.6 °F 93% 30.09 in 10.0 mi SW 5.8 mph - N/A   Clear
8:55 AM 28.4 °F 24.6 °F 26.6 °F 93% 30.10 in 10.0 mi WSW 3.5 mph - N/A   Clear
9:15 AM 32.0 °F - 28.4 °F 87% 30.11 in 10.0 mi Calm Calm - N/A   Clear
9:35 AM 32.0 °F 27.5 °F 28.4 °F 87% 30.11 in 10.0 mi SW 4.6 mph - N/A   Clear
9:55 AM 35.6 °F 29.9 °F 28.4 °F 75% 30.11 in 10.0 mi WSW 6.9 mph - N/A   Clear
10:15 AM 35.6 °F 29.9 °F 28.4 °F 75% 30.11 in 10.0 mi WSW 6.9 mph - N/A   Clear
10:35 AM 37.4 °F 31.4 °F 28.4 °F 70% 30.11 in 10.0 mi SW 8.1 mph - N/A   Clear
10:55 AM 39.2 °F 32.5 °F 30.2 °F 70% 30.12 in 10.0 mi WSW 10.4 mph - N/A   Clear
11:15 AM 41.0 °F 35.8 °F 30.2 °F 65% 30.12 in 10.0 mi WSW 8.1 mph - N/A   Clear
11:35 AM 41.0 °F 35.8 °F 28.4 °F 61% 30.12 in 10.0 mi WSW 8.1 mph - N/A   Clear
11:55 AM 42.8 °F 38.6 °F 28.4 °F 57% 30.12 in 10.0 mi WSW 6.9 mph - N/A   Clear
12:15 PM 44.6 °F 41.4 °F 28.4 °F 53% 30.12 in 10.0 mi WSW 5.8 mph - N/A   Clear
12:35 PM 44.6 °F 41.4 °F 30.2 °F 57% 30.12 in 10.0 mi WSW 5.8 mph - N/A   Clear
1:15 PM 46.4 °F - 30.2 °F 53% 30.11 in 10.0 mi Calm Calm - N/A   Clear
1:35 PM 48.2 °F - 30.2 °F 50% 30.10 in 10.0 mi Calm Calm - N/A   Clear
1:55 PM 48.2 °F - 30.2 °F 50% 30.10 in 10.0 mi Calm Calm - N/A   Clear
2:15 PM 50.0 °F - 28.4 °F 43% 30.10 in 10.0 mi WSW 3.5 mph - N/A   Clear
2:35 PM 50.0 °F - 28.4 °F 43% 30.10 in 10.0 mi SW 3.5 mph - N/A   Clear
2:55 PM 50.0 °F - 26.6 °F 40% 30.10 in 10.0 mi WSW 5.8 mph - N/A   Clear
3:15 PM 50.0 °F - 26.6 °F 40% 30.10 in 10.0 mi SW 4.6 mph - N/A   Clear
3:35 PM 50.0 °F - 24.8 °F 37% 30.10 in 10.0 mi SW 4.6 mph - N/A   Clear
3:55 PM 50.0 °F - 24.8 °F 37% 30.09 in 10.0 mi South 3.5 mph - N/A   Clear
4:15 PM 48.2 °F - 26.6 °F 43% 30.09 in 10.0 mi South 5.8 mph - N/A   Clear
4:35 PM 44.6 °F 42.2 °F 26.6 °F 49% 30.09 in 10.0 mi SSE 4.6 mph - N/A   Clear
4:55 PM 37.4 °F 32.1 °F 26.6 °F 65% 30.10 in 10.0 mi South 6.9 mph - N/A   Clear
5:15 PM 35.6 °F 29.9 °F 24.8 °F 65% 30.10 in 10.0 mi SSE 6.9 mph - N/A   Clear
5:35 PM 33.8 °F 27.7 °F 24.8 °F 70% 30.10 in 10.0 mi SSE 6.9 mph - N/A   Clear
5:55 PM 32.0 °F 25.6 °F 24.8 °F 75% 30.10 in 10.0 mi SSE 6.9 mph - N/A   Clear
6:15 PM 32.0 °F 26.4 °F 24.8 °F 75% 30.10 in 10.0 mi SE 5.8 mph - N/A   Clear
6:35 PM 33.8 °F 27.0 °F 24.8 °F 70% 30.11 in 10.0 mi SE 8.1 mph - N/A   Clear
6:55 PM 32.0 °F 25.6 °F 24.8 °F 75% 30.11 in 10.0 mi SE 6.9 mph - N/A   Clear
7:15 PM 30.2 °F 25.4 °F 24.8 °F 80% 30.12 in 10.0 mi SE 4.6 mph - N/A   Clear
7:35 PM 28.4 °F 22.2 °F 23.0 °F 80% 30.10 in 10.0 mi SE 5.8 mph - N/A   Clear
7:55 PM 32.0 °F 23.6 °F 26.6 °F 80% 30.09 in 10.0 mi SE 10.4 mph - N/A   Clear
8:15 PM 37.4 °F 30.3 °F 26.6 °F 65% 30.09 in 10.0 mi SSE 10.4 mph - N/A   Clear
8:35 PM 37.4 °F 30.8 °F 26.6 °F 65% 30.08 in 10.0 mi SSE 9.2 mph - N/A   Clear
9:15 PM 37.4 °F 31.4 °F 26.6 °F 65% 30.09 in 10.0 mi SSE 8.1 mph - N/A   Clear
9:35 PM 37.4 °F 29.3 °F 26.6 °F 65% 30.07 in 10.0 mi SSE 12.7 mph - N/A   Partly Cloudy
9:55 PM 39.2 °F 32.0 °F 24.8 °F 56% 30.07 in 10.0 mi South 11.5 mph - N/A   Clear
10:15 PM 37.4 °F 32.8 °F 24.8 °F 60% 30.09 in 10.0 mi South 5.8 mph - N/A   Clear
10:35 PM 39.2 °F 31.2 °F 26.6 °F 61% 30.07 in 10.0 mi South 13.8 mph - N/A   Clear
10:55 PM 39.2 °F 31.6 °F 26.6 °F 61% 30.06 in 10.0 mi South 12.7 mph - N/A   Clear
11:15 PM 37.4 °F 30.8 °F 26.6 °F 65% 30.06 in 10.0 mi South 9.2 mph - N/A   Clear
11:35 PM 37.4 °F 31.4 °F 26.6 °F 65% 30.05 in 10.0 mi SSE 8.1 mph - N/A   Clear
11:55 PM 37.4 °F 31.4 °F 26.6 °F 65% 30.05 in 10.0 mi South 8.1 mph - N/A   Clear